Weather Roundup
Issued by NWS Chicago, IL

Home | Current Version | Previous Version | Text Only | Print | Product List | Glossary On
Versions: 1 2 3 4 5 6 7 8 9 10 11 12 13 14 15 16 17 18 19 20 21 22 23 24 25 26 27 28 29 30 31 32 33 34 35 36 37 38 39 40 41 42 43 44 45 46 47 48 49 50
000
NZUS59 KLOT 011010
HRRLOT

CHICAGO AREA WEATHER ROUNDUP
NATIONAL WEATHER SERVICE CHICAGO/ROMEOVILLE IL
500 AM CDT WED OCT 01 2014

NOTE: "FAIR" INDICATES FEW OR NO CLOUDS BELOW 12,000 FEET WITH NO
SIGNIFICANT WEATHER AND/OR OBSTRUCTIONS TO VISIBILITY.

* THESE STATIONS ARE NOT UNDER NWS QUALITY CONTROL. THEY ALSO MAY NOT
  REPORT WEATHER SUCH AS PRECIPITATION OR FOG.

ILZ005-006-012>014-019>023-011100-
NORTHEAST ILLINOIS

CITY           SKY/WX    TMP DP  RH WIND       PRES   REMARKS
OHARE          MOCLDY    54  46  74 SE13      30.00S
MIDWAY         PTCLDY    53  46  77 SE7       30.00S
AURORA         CLEAR     48  43  82 E3        30.00S
LANSING*       CLEAR     44  44  99 E3        30.01S
JOLIET*        CLEAR     46  44  91 CALM      29.99F
WAUKEGAN       NOT AVBL
DUPAGE AIRPORT CLEAR     50  44  80 SE5       29.99S
WHEELING       CLOUDY    57  47  69 SE9       30.01F
KANKAKEE*      CLEAR     44  43  96 E6        30.01S
MORRIS*        CLEAR     47  46  97 E5        29.99S
LEWIS AIRPORT* CLEAR     46  45  95 E7        30.00F
NORTHERLY IS     N/A     56  47  71 SE10        N/A
$$

WIZ051-052-058>065-066-070>072-011100-
SOUTHEAST WISCONSIN

CITY           SKY/WX    TMP DP  RH WIND       PRES   REMARKS
MILWAUKEE      CLOUDY    56  48  74 SE8       30.00S
KENOSHA*       CLOUDY    55  48  77 SE13      30.00F
RACINE*        CLOUDY    57  47  69 SE8       30.01F
BURLINGTON     CLOUDY    51  47  84 SE6       29.99S
WAUKESHA       CLOUDY    50  48  93 SE5       30.00S
WEST BEND      CLOUDY    50  46  87 E3        30.00S
$$

INZ001>003-010>013-019-020-011100-
NORTHWEST INDIANA

CITY           SKY/WX    TMP DP  RH WIND       PRES   REMARKS
GARY*          PTCLDY    46  45  93 E7        30.02S
MICHIGAN CITY* NOT AVBL
RENSSELAER*    NOT AVBL
VALPARAISO     CLEAR     45  44  97 CALM      30.02R
$$

LMZ740>746-011100-
SOUTHERN LAKE MICHIGAN

STATION/POSITION TIME  SKY/WX   TEMP WIND        PRES    VSBY
                                AIR  DIR/SP/G
                 (UTC)          (F)  (DEG/KT/KT) (MB)    (MI)
HARRISON CRIB    1000            56  150/ 12/ 15   N/A
BURNHAM HARBOR   1000            56  120/ 11/ 12   N/A
CALUMET HARBOR   1000            56  120/  6/ 10 1014.9F
BURNS HARBOR     NOT AVBL
MICHIGAN CITY    1000            53   70/  4/  4   N/A
$$

ABBREVIATIONS USED IN REMARKS
   TC - TEMPERATURE IN CELSIUS
  WCI - WIND CHILL INDEX
   HX - HEAT INDEX
  VSB - VISIBILITY
$$


USA.gov is the U.S. government's official web portal to all federal, state and local government web resources and services.